Regional Weather Roundup
Issued by NWS

Home | Current Version | Previous Version | Graphics & Text | Print | Product List | Glossary Off
Versions: 1 2 3 4 5 6 7 8 9 10 11 12 13 14 15 16 17 18 19 20 21 22 23 24 25 26 27 28 29 30 31 32 33 34 35 36 37 38 39 40 41 42 43 44 45 46 47 48 49 50

000
ASUS43 KMPX 270301
RWRMN
WEATHER ROUNDUP FOR MINNESOTA
NATIONAL WEATHER SERVICE TWIN CITIES/CHANHASSEN MN
1000 PM CDT TUE AUG 26 2014


NOTE: "FAIR" INDICATES FEW OR NO CLOUDS BELOW 12,000 FEET WITH NO
SIGNIFICANT WEATHER AND/OR OBSTRUCTIONS TO VISIBILITY. N/A MEANS
CURRENT SKY AND/OR WEATHER CONDITIONS ARE NOT AVAILABLE.

MNZ060>063-068>070-270400-
   Twin Cities Metro

CITY           SKY/WX    TMP DP  RH WIND       PRES   REMARKS
TWIN CITIES    CLOUDY    69  52  54 NE5       30.15R
ST PAUL        PTCLDY    66  55  67 CALM      30.15S
CRYSTAL        MOCLDY    68  53  58 N5        30.14R
BLAINE         CLOUDY    66  57  72 N5        30.16R
LAKEVILLE      PTCLDY    61  57  88 CALM      30.15S
EDEN PRAIRIE   CLOUDY    67  56  67 CALM      30.15R
SOUTH ST PAUL  PTCLDY    68  54  60 CALM      30.15S
LAKE ELMO      FAIR      63  59  88 CALM      30.16S
$$
MNZ001>005-007-008-013>017-022>024-027-028-270400-
   Northwest Minnesota

CITY           SKY/WX    TMP DP  RH WIND       PRES   REMARKS
BEMIDJI        CLOUDY    55  52  90 S3        30.17R
HALLOCK        PTCLDY    54  50  87 E7        30.14R
ROSEAU         PTCLDY    50  45  81 CALM      30.17R
WARROAD        PTCLDY    48  45  87 CALM      30.17R
THIEF RVR FALL PTCLDY    55  50  82 E5        30.16R
CROOKSTON      PTCLDY    55  52  88 S6        30.16R
FOSSTON        MOCLDY    52  50  93 CALM      30.17R
DETROIT LAKES  CLOUDY    59  54  82 CALM      30.18S
MOORHEAD       CLOUDY    61  61 100 CALM      30.17R
PARK RAPIDS    LGT RAIN  58  54  86 CALM      30.18R
$$
MNZ006-009>011-018-025>026-270400-
   North Central Minnesota

CITY           SKY/WX    TMP DP  RH WIND       PRES   REMARKS
BAUDETTE       MOCLDY    49  47  93 SW3       30.16S
FLAG ISLAND    CLEAR     55  48  76 W7        30.14S
INTL FALLS     CLOUDY    51  47  86 W3        30.15F
WASKISH        MOCLDY    50  48  93 CALM      30.17R
BIG FORK       LGT RAIN  54  52  94 CALM      30.18S
LONGVILLE      DRIZZLE   55  54  94 CALM      30.16R
GRAND RAPIDS   CLOUDY    54  48  82 CALM      30.17F
CRANE LAKE     PTCLDY    52  46  82 CALM      30.18R
ORR            CLOUDY    55  45  67 CALM      30.15S
COOK           CLOUDY    55  48  76 CALM      30.17S
WALKER         DRIZZLE   55  52  92 CALM      30.17R
$$
MNZ012-019>021-037-270400-
   Northeast Minnesota

CITY           SKY/WX    TMP DP  RH WIND       PRES   REMARKS
DULUTH         MOCLDY    56  49  77 NW6       30.16R
ELY            PTCLDY    55  46  71 NW6       30.16S
HIBBING        CLOUDY    53  48  83 W3        30.18R
EVELETH        MOCLDY    57  50  77 W3        30.18R
DULUTH HARBOR  PTCLDY    63  50  63 NW9       30.16R
TWO HARBORS    PTCLDY    55  48  76 CALM      30.14S
SILVER BAY     PTCLDY    52  52 100 CALM      30.14R
GRAND MARAIS     N/A     58  50  75 W3        30.13S
G MARAIS ARPRT CLOUDY    54  45  71 W3        30.16R
$$
MNZ029>031-032-039>041-046>048-054>057-064-270400-
   West Central Minnesota

CITY           SKY/WX    TMP DP  RH WIND       PRES   REMARKS
FERGUS FALLS   RAIN      61  55  82 CALM      30.18R
WHEATON        CLOUDY    57  55  94 CALM      30.20R
MORRIS         MOCLDY    59  57  94 CALM      30.16S
ALEXANDRIA     CLOUDY    61  56  83 SW3       30.19R
ELBOW LAKE     CLOUDY    59  57  91 W5        30.18R
WADENA         LGT RAIN  57  55  94 N3        30.17R
GLENWOOD       CLOUDY    59  57  94 SW3       30.19R
APPLETON       MOCLDY    61  55  82 E5        30.16S
BENSON         MOCLDY    59  57  94 CALM      30.18R
ORTONVILLE     CLOUDY    61  55  82 CALM      30.17R
MADISON        MOCLDY    63  57  82 NE3       30.17R
WILLMAR        FAIR      63  55  77 CALM      30.19R
$$
MNZ033>034-036-042>043-049>051-058-059-270400-
   Central Minnesota

CITY           SKY/WX    TMP DP  RH WIND       PRES   REMARKS
ST CLOUD       CLOUDY    64  56  75 N3        30.16R
SAUK CENTRE    MOCLDY    59  56  90 SW3       30.18R
PAYNESVILLE    HVY RAIN  58  56  92 CALM      30.18R
AITKIN         MOCLDY    57  52  82 CALM      30.15F
PINE RIVER     CLOUDY    57  55  94 CALM      30.20R
BRAINERD       CLOUDY    58  52  80 CALM      30.16F
STAPLES        CLOUDY    59  55  88 CALM      30.17R
LONG PRAIRIE   CLOUDY    59  55  88 CALM      30.18R
LITTLE FALLS   CLOUDY    59  55  88 CALM      30.17S
LITCHFIELD     CLOUDY    64  57  77 N5        30.18R
BUFFALO        CLOUDY    64  54  68 N3        30.17R
MAPLE LAKE     CLOUDY    64  57  79 CALM      30.17S
$$
MNZ037-044-045-052-053-270400-
   East Central Minnesota

CITY           SKY/WX    TMP DP  RH WIND       PRES   REMARKS
PRINCETON      CLOUDY    64  57  77 CALM      30.16S
MORA           DRIZZLE   55  54  94 CALM      30.17F
CAMBRIDGE      LGT RAIN  64  54  68 CALM      30.14S
RUSH CITY      CLOUDY    60  56  85 CALM      30.16S
MOOSE LAKE     MOCLDY    55  50  82 N3        30.15F
HINCKLEY       MOCLDY    59  54  82 N3        30.17R
CLOQUET        MOCLDY    55  50  82 NW3       30.17S
MCGREGOR       MOCLDY    55  52  88 CALM      30.17S
$$
MNZ071>073-080-081-089-090-097-098-270400-
   Southwest Minnesota

CITY           SKY/WX    TMP DP  RH WIND       PRES   REMARKS
MONTEVIDEO     CLOUDY    61  57  88 E5        30.18R
GRANITE FALLS  CLOUDY    63  57  81 N7        30.18R
CANBY          CLOUDY    62  56  83 CALM      30.18S
MARSHALL       MOCLDY    64  55  72 E7        30.16R
REDWOOD FALLS  MOCLDY    65  57  75 CALM      30.16R
OLIVIA         CLOUDY    63  55  77 N3        30.17R
PIPESTONE      PTCLDY    61  57  88 SE3       30.18R
WINDOM         PTCLDY    61  55  82 CALM      30.18R
WORTHINGTON    CLEAR     59  57  94 SE6       30.19R
JACKSON        CLEAR     59  54  82 E5        30.19S
TRACY          PTCLDY    64  59  81 CALM      30.17R
SLAYTON        PTCLDY    60  56  87 CALM      30.19R
$$
MNZ065>067-074>077-082>085-091>093-270400-
   South Central Minnesota

CITY           SKY/WX    TMP DP  RH WIND       PRES   REMARKS
MANKATO        MOCLDY    63  54  72 CALM      30.17R
NEW ULM        CLOUDY    64  61  88 CALM      30.16R
ST JAMES       PTCLDY    61  57  88 CALM      30.18S
FAIRMONT       CLEAR     57  54  88 CALM      30.18R
GLENCOE        CLOUDY    66  56  68 CALM      30.16R
FARIBAULT      PTCLDY    63  55  77 CALM      30.17R
OWATONNA       PTCLDY    59  55  88 CALM      30.17R
WASECA         PTCLDY    55  52  88 CALM      30.19R
ALBERT LEA     PTCLDY    63  59  88 CALM      30.17R
$$
MNZ078>079-086>088-094>096-270400-
   Southeast Minnesota

CITY           SKY/WX    TMP DP  RH WIND       PRES   REMARKS
ROCHESTER      MOCLDY    63  55  75 N6        30.18R
RED WING       MOCLDY    61  57  88 CALM      30.14S
STANTON        PTCLDY    60  57  89 CALM      30.15R
DODGE CENTER   PTCLDY    63  59  88 CALM      30.17S
WINONA         MOCLDY    63  57  82 CALM      30.15S
AUSTIN         MOCLDY    63  57  82 CALM      30.16R
PRESTON        CLOUDY    61  60  94 CALM      30.17R
$$
ABBREVIATIONS USED IN REMARKS
   TC - TEMPERATURES IN CELSIUS
  WCI - WIND CHILL INDEX
   HX - HEAT INDEX
  VSB - VISIBILITY
$$


USA.gov is the U.S. government's official web portal to all federal, state and local government web resources and services.